[[{"header":{"parameterUnit":"m.s-1","parameterCategory":1,"la1":30.2991,"la2":30.254,"lo1":-89.0895,"lo2":-89.0444,"dy":0.0017,"dx":0.0017,"nx":28,"ny":28,"refTime":"2024-07-23T21:00:00:Z","depth":0,"parameterNumber":2,"parameterNumberName":"U-component_of_WINDS"},"data":[0,0,0,0,0,0,0,0,0,0,0,0,0,0,0,0,0,0,0,0,0,0,0,0,0,0,0,0,0,0,0,0,0,0,0,0,0,0,0,0,0,0,0,0,0,0,0,0,0,0,0,0,0,0,0,0,0,0,-1.6528,-1.6529,0,-1.6665,-1.6666,-1.6668,-1.6734,-1.6734,-1.6734,-1.6734,-1.6875,-1.6879,-1.6883,0,0,0,0,0,0,0,0,0,0,0,0,0,-1.6323,-1.6327,-1.6527,-1.6529,-1.6531,-1.6664,-1.6666,-1.6668,-1.6734,-1.6734,-1.6734,-1.6734,-1.6874,-1.6879,-1.6883,0,0,0,0,0,0,0,0,0,0,0,0,0,-1.6431,-1.6328,-1.6527,-1.658,-1.6586,-1.6664,-1.6666,-1.6669,-1.6734,-1.6734,-1.6734,-1.6734,-1.6873,-1.6878,-1.6884,-1.692,0,0,-1.6901,-1.6904,0,0,0,0,0,0,0,0,-1.6425,-1.6439,-1.657,-1.6576,-1.6583,-1.6682,-1.6646,-1.6753,-1.6734,-1.6678,-1.6734,-1.6734,-1.6811,-1.6822,-1.6848,-1.6927,-1.6933,-1.6902,-1.6905,-1.6908,-1.6909,0,0,0,0,0,0,0,-1.6417,-1.6433,-1.6582,-1.6572,-1.658,-1.6597,-1.6612,-1.6667,-1.6743,-1.6683,-1.6688,-1.6703,-1.6815,-1.6842,-1.6852,-1.6935,-1.6902,-1.6907,-1.691,-1.6912,-1.7052,-1.7052,0,0,0,0,0,0,-1.6401,-1.6426,-1.6577,-1.6586,-1.6502,-1.66,-1.6618,-1.665,-1.6743,-1.6757,-1.6703,-1.6706,-1.6832,-1.6845,-1.6857,-1.6906,-1.6908,-1.6913,-1.6916,-1.7051,-1.7052,-1.7052,0,0,0,0,0,0,-1.6397,-1.6414,-1.6572,-1.6508,-1.6529,-1.6604,-1.664,-1.6653,-1.6681,-1.6758,-1.6772,-1.6717,-1.6833,-1.6849,-1.6904,-1.6912,-1.6915,-1.6921,-1.7051,-1.7051,-1.7052,-1.7005,0,0,0,0,0,0,-1.639,-1.6412,-1.6427,-1.6507,-1.6532,-1.6616,-1.6641,-1.6656,-1.669,-1.6695,-1.6775,-1.6788,-1.6834,-1.6895,-1.691,-1.692,-1.6925,-1.7051,-1.7051,-1.7052,-1.7006,-1.7003,-1.7001,0,0,0,0,0,-1.6383,-1.6408,-1.6427,-1.6445,-1.6552,-1.6617,-1.6631,-1.6683,-1.6691,-1.6706,-1.6756,-1.6786,-1.6909,-1.69,-1.6917,-1.6929,-1.705,-1.7051,-1.7052,-1.7007,-1.7004,-1.7001,0,0,0,0,0,0,-1.6326,-1.642,-1.6442,-1.6493,-1.6546,-1.6628,-1.6649,-1.6678,-1.673,-1.6733,-1.6795,-1.6813,-1.6862,-1.6902,-1.6891,-1.697,-1.6982,-1.6986,-1.6942,-1.694,-1.6938,-1.6928,-1.693,0,0,0,0,0,-1.632,-1.6364,-1.6444,-1.6482,-1.6507,-1.6573,-1.6603,-1.6639,-1.6696,-1.6719,-1.6773,-1.6828,-1.688,-1.6912,-1.6963,-1.7012,-1.703,-1.7028,-1.7026,-1.7024,-1.7027,-1.7055,-1.7056,-1.7054,-1.7054,-1.7054,0,0,-1.6307,-1.6363,-1.6388,-1.6472,-1.6517,-1.6562,-1.6592,-1.6638,-1.6672,-1.6727,-1.6782,-1.6823,-1.6889,-1.6941,-1.6967,-1.6975,-1.7031,-1.7024,-1.7022,-1.7026,-1.7056,-1.7056,-1.7056,-1.7054,-1.7054,-1.7054,0,0,-1.6307,-1.6354,-1.6391,-1.6435,-1.6504,-1.6547,-1.6556,-1.6633,-1.6662,-1.6719,-1.676,-1.6802,-1.6889,-1.6934,-1.6968,-1.6985,-1.7015,-1.7,-1.6988,-1.7015,-1.7016,-1.7016,-1.7022,-1.7024,-1.7002,-1.7002,-1.7002,0,-1.6283,-1.6352,-1.6406,-1.645,-1.6486,-1.6537,-1.6575,-1.6616,-1.6697,-1.6721,-1.6729,-1.6839,-1.6887,-1.695,-1.6954,-1.698,-1.6992,-1.6991,-1.7011,-1.7012,-1.7013,-1.702,-1.7022,-1.7,-1.7,-1.7,-1.7001,0,-1.6319,-1.6366,-1.6388,-1.6465,-1.6503,-1.6543,-1.6604,-1.6636,-1.6668,-1.6711,-1.6768,-1.6827,-1.6892,-1.6909,-1.6941,-1.6977,-1.6981,-1.6999,-1.7013,-1.701,-1.7018,-1.7021,-1.6997,-1.6998,-1.6998,-1.6999,0,0,-1.6287,-1.6393,-1.64,-1.6436,-1.6514,-1.6552,-1.6595,-1.6658,-1.6685,-1.6739,-1.6777,-1.6849,-1.6867,-1.6906,-1.6943,-1.6967,-1.6977,-1.6983,-1.6985,-1.698,-1.7021,-1.7007,-1.7009,-1.6997,-1.6997,-1.6998,-1.7016,0,-1.6298,-1.6378,-1.6428,-1.6487,-1.6532,-1.658,-1.6618,-1.667,-1.6711,-1.6756,-1.6801,-1.6851,-1.6871,-1.6895,-1.692,-1.697,-1.6986,-1.6969,-1.7033,-1.7035,-1.7016,-1.7013,-1.6998,-1.7012,-1.7019,-1.7019,-1.702,0,-1.6322,-1.6375,-1.6438,-1.6512,-1.6532,-1.6565,-1.6627,-1.6668,-1.6729,-1.6757,-1.68,-1.6838,-1.6886,-1.6895,-1.6963,-1.695,-1.698,-1.7008,-1.701,-1.7018,-1.7027,-1.7022,-1.7018,-1.702,-1.7025,-1.7024,-1.7024,0,-1.6293,-1.638,-1.6429,-1.6458,-1.6545,-1.6567,-1.6604,-1.6665,-1.6699,-1.6753,-1.6776,-1.6835,-1.6867,-1.6912,-1.6965,-1.6967,-1.7027,-1.7041,-1.7052,-1.7051,-1.7063,-1.7062,-1.7064,-1.7081,-1.7081,-1.7081,-1.7081,0,-1.6301,-1.6338,-1.6417,-1.6448,-1.6491,-1.6548,-1.6589,-1.6631,-1.6684,-1.6724,-1.6769,-1.6806,-1.6873,-1.6918,-1.6959,-1.7009,-1.7023,-1.7048,-1.7059,-1.7044,-1.7041,-1.7065,-1.7065,-1.7081,-1.7081,-1.7081,-1.7081,0,-1.6276,-1.6331,-1.6388,-1.6465,-1.6486,-1.6514,-1.6581,-1.6612,-1.6655,-1.6705,-1.672,-1.6788,-1.6843,-1.69,-1.6975,-1.7003,-1.7052,-1.7066,-1.7031,-1.7037,-1.7046,-1.7044,-1.7064,-1.707,-1.7081,-1.7081,-1.7081,0,-1.6277,-1.6307,-1.6387,-1.6417,-1.6453,-1.65,-1.6535,-1.6592,-1.6627,-1.6698,-1.6721,-1.678,-1.683,-1.6915,-1.6972,-1.703,-1.7046,-1.7049,-1.7055,-1.704,-1.7047,-1.7045,-1.7048,-1.7047,-1.7047,-1.7046,-1.7046,0,-1.6274,-1.63,-1.6348,-1.6406,-1.6446,-1.6495,-1.6545,-1.6567,-1.6634,-1.6671,-1.6728,-1.6766,-1.6842,-1.69,-1.6964,-1.7004,-1.7036,-1.7044,-1.7049,-1.7035,-1.7014,-1.7026,-1.7025,-1.7043,-1.7043,-1.7044,-1.7044,-1.7044,-1.6263,-1.6292,-1.6353,-1.6405,-1.6449,-1.6495,-1.6528,-1.6575,-1.6623,-1.6689,-1.672,-1.6777,-1.6837,-1.6927,-1.6966,-1.7011,-1.7021,-1.7029,-1.7031,-1.7032,-1.7029,-1.7006,-1.7023,-1.7023,-1.7024,-1.7024,-1.7024,0,-1.6263,-1.6304,-1.6352,-1.642,-1.6462,-1.6488,-1.6545,-1.6578,-1.6627,-1.668,-1.6728,-1.6793,-1.6849,-1.691,-1.697,-1.6995,-1.7012,-1.7009,-1.7008,-1.7017,-1.7017,-1.7006,-1.6995,-1.6995,-1.6995,-1.6995,-1.6995,-1.6995,-1.6267,-1.6317,-1.6349,-1.6421,-1.6463,-1.6518,-1.6549,-1.6592,-1.6634,-1.6705,-1.6751,-1.679,-1.6847,-1.6911,-1.6964,-1.6981,-1.7001,-1.6994,-1.7015,-1.7014,-1.7017,-1.7019,-1.7009,-1.6998,-1.6998,-1.7011,-1.7011,-1.7011]},{"header":{"parameterUnit":"m.s-1","parameterCategory":1,"la1":30.2991,"la2":30.254,"lo1":-89.0895,"lo2":-89.0444,"dy":0.0017,"dx":0.0017,"nx":28,"ny":28,"refTime":"2024-07-23T21:00:00:Z","depth":0,"parameterNumber":3,"parameterNumberName":"V-component_of_WINDS"},"data":[0,0,0,0,0,0,0,0,0,0,0,0,0,0,0,0,0,0,0,0,0,0,0,0,0,0,0,0,0,0,0,0,0,0,0,0,0,0,0,0,0,0,0,0,0,0,0,0,0,0,0,0,0,0,0,0,0,0,3.5741,3.5742,0,3.5823,3.5824,3.5825,3.5758,3.5755,3.5752,3.575,3.5832,3.5837,3.5842,0,0,0,0,0,0,0,0,0,0,0,0,0,3.5522,3.5526,3.5741,3.5742,3.5743,3.5823,3.5824,3.5825,3.5758,3.5755,3.5751,3.5748,3.583,3.5836,3.5842,0,0,0,0,0,0,0,0,0,0,0,0,0,3.5612,3.5527,3.5741,3.5719,3.5718,3.5823,3.5824,3.5826,3.5759,3.5755,3.5751,3.5747,3.5829,3.5836,3.5843,3.5972,0,0,3.5865,3.5868,0,0,0,0,0,0,0,0,3.5607,3.562,3.5721,3.5721,3.572,3.5776,3.5777,3.5875,3.576,3.5744,3.5749,3.5745,3.5817,3.5825,3.5849,3.5976,3.598,3.5866,3.587,3.5873,3.5875,0,0,0,0,0,0,0,3.5601,3.5616,3.5773,3.5723,3.5722,3.5704,3.5712,3.5795,3.5803,3.5745,3.574,3.5751,3.5815,3.5843,3.5851,3.5981,3.5865,3.5872,3.5876,3.5879,3.6215,3.6219,0,0,0,0,0,0,3.5597,3.5611,3.5771,3.5776,3.5652,3.5712,3.5721,3.5762,3.5802,3.5804,3.5754,3.5747,3.5832,3.5842,3.5853,3.6005,3.5873,3.588,3.5884,3.621,3.6216,3.6221,0,0,0,0,0,0,3.5592,3.5612,3.5767,3.5692,3.5711,3.572,3.5767,3.5766,3.5793,3.5809,3.581,3.5781,3.5829,3.5843,3.5943,3.6007,3.5883,3.589,3.6205,3.6212,3.6218,3.6312,0,0,0,0,0,0,3.5586,3.5611,3.5661,3.5694,3.5715,3.5857,3.5771,3.5771,3.5806,3.5798,3.5834,3.5836,3.5827,3.5932,3.595,3.6015,3.5895,3.6199,3.6208,3.6216,3.6303,3.6321,3.6337,0,0,0,0,0,3.5579,3.5685,3.5664,3.5684,3.5778,3.5861,3.5873,3.5861,3.5812,3.5861,3.5871,3.5835,3.5998,3.5943,3.5962,3.6031,3.6195,3.6205,3.6215,3.6296,3.6318,3.6336,0,0,0,0,0,0,3.5659,3.5689,3.5666,3.5786,3.5821,3.5849,3.5912,3.5885,3.5935,3.5925,3.5907,3.5916,3.602,3.6035,3.5974,3.6156,3.6088,3.6103,3.6143,3.6164,3.618,3.6173,3.5901,0,0,0,0,0,3.5691,3.5756,3.5778,3.5881,3.59,3.5903,3.5939,3.5926,3.5962,3.5976,3.5994,3.6029,3.6087,3.6127,3.6182,3.6305,3.6311,3.6362,3.6378,3.6392,3.6404,3.6468,3.649,3.6254,3.6254,3.6254,0,0,3.5757,3.5781,3.5823,3.5898,3.5924,3.599,3.5916,3.599,3.6039,3.5987,3.6082,3.6096,3.6134,3.6245,3.6295,3.6261,3.6471,3.6405,3.6416,3.6421,3.6481,3.6503,3.6523,3.6261,3.626,3.6259,0,0,3.591,3.5937,3.6024,3.6051,3.6091,3.6092,3.6113,3.6145,3.6152,3.6247,3.6209,3.6265,3.6368,3.6396,3.6423,3.6585,3.6552,3.6603,3.669,3.6752,3.6771,3.6787,3.6842,3.6863,3.6616,3.6616,3.6616,0,3.5987,3.6087,3.6072,3.6149,3.6181,3.6138,3.6225,3.6252,3.6308,3.6331,3.6292,3.6418,3.6441,3.6556,3.6595,3.662,3.6642,3.6599,3.6769,3.6786,3.6801,3.6853,3.6874,3.6622,3.6621,3.6621,3.662,0,3.6178,3.6247,3.6313,3.6367,3.6408,3.6489,3.6486,3.6528,3.6511,3.6516,3.6611,3.6637,3.6695,3.6721,3.6707,3.6834,3.6812,3.6772,3.6703,3.6829,3.6878,3.6898,3.663,3.6628,3.6626,3.6625,0,0,3.6385,3.6429,3.6453,3.6476,3.6516,3.6569,3.6647,3.6704,3.674,3.6779,3.6843,3.693,3.6892,3.6923,3.6911,3.6966,3.7088,3.6918,3.6919,3.6947,3.7228,3.7256,3.728,3.7068,3.7071,3.7074,3.7224,0,3.6539,3.6676,3.6664,3.6793,3.6855,3.6813,3.6881,3.6912,3.6918,3.697,3.6976,3.7037,3.6984,3.7002,3.7055,3.7063,3.7144,3.7052,3.7124,3.7127,3.7115,3.7306,3.7337,3.7476,3.7243,3.7246,3.7248,0,3.6737,3.6782,3.6917,3.6945,3.6971,3.7032,3.7082,3.7133,3.7167,3.7167,3.7201,3.7178,3.7255,3.7185,3.7288,3.7226,3.7255,3.7263,3.7268,3.7273,3.7194,3.7314,3.7521,3.7541,3.7279,3.7276,3.7274,0,3.6871,3.6967,3.7059,3.708,3.7116,3.7159,3.7176,3.7205,3.7239,3.7282,3.7304,3.7356,3.7383,3.7423,3.7414,3.7364,3.7519,3.7449,3.752,3.752,3.7553,3.7551,3.7766,3.7575,3.7575,3.7575,3.7574,0,3.7043,3.7127,3.7119,3.7176,3.7268,3.7252,3.7343,3.7354,3.738,3.7437,3.7404,3.7458,3.7444,3.7496,3.749,3.7575,3.7589,3.7589,3.7586,3.7592,3.7591,3.7609,3.7598,3.758,3.7579,3.7578,3.7577,0,3.7209,3.7208,3.7305,3.733,3.7338,3.7404,3.7425,3.7477,3.748,3.7552,3.7568,3.7571,3.7631,3.7627,3.7694,3.769,3.7795,3.7781,3.7784,3.778,3.785,3.7842,3.8082,3.8112,3.7904,3.7906,3.7908,0,3.7318,3.7381,3.7412,3.7448,3.7467,3.7525,3.7559,3.7546,3.7583,3.7624,3.7671,3.7728,3.7773,3.787,3.7878,3.7929,3.7915,3.7995,3.7922,3.7924,3.7913,3.7909,3.7914,3.8009,3.8012,3.8013,3.8015,0,3.751,3.7506,3.7557,3.7607,3.7649,3.7688,3.7723,3.7754,3.7744,3.7786,3.7847,3.7882,3.795,3.8006,3.8054,3.8069,3.804,3.8038,3.8056,3.8062,3.8059,3.8059,3.7821,3.8032,3.8031,3.8029,3.8028,3.8028,3.765,3.7703,3.7732,3.7789,3.7814,3.7847,3.7897,3.7905,3.7955,3.801,3.7999,3.8066,3.8095,3.8156,3.8176,3.8228,3.8199,3.8226,3.8233,3.824,3.8246,3.8053,3.8237,3.8236,3.8236,3.8235,3.8235,0,3.7838,3.7855,3.7908,3.7957,3.8001,3.797,3.8007,3.8046,3.8106,3.8135,3.818,3.8248,3.8301,3.8313,3.8364,3.8403,3.839,3.8416,3.8412,3.8416,3.8271,3.8249,3.8425,3.8425,3.8425,3.8425,3.8425,3.8425,3.7942,3.8029,3.8028,3.8126,3.8141,3.8208,3.8231,3.826,3.8283,3.8361,3.8406,3.8413,3.8434,3.8486,3.8533,3.8535,3.8554,3.8585,3.8581,3.8445,3.8426,3.8408,3.8387,3.859,3.859,3.8721,3.8722,3.8723]}]]